UAE7V OMDB-LFPG

Flight info

Callsign UAE7V
Flight time N/A
Altitude 37000
Route ANVIX L223 TARDI N629 BOTAM Y855 LAKLU/N0493F360 Q204 NALKI G652 TOKRA DCT ALROK DCT BOSOB DCT ITRUX Y511 NALBA/N0492F380 Y511 PMA Z712 WEJ L677 CVO L617 NOZ L551 ANTAR UN133 GUDIS DCT RIGRO DCT AMISI DCT DISOR/N0479F400 DCT LONTA UL608 DOLEV DCT PEVAL DCT RESIA DCT SOPER DCT ELMUR L613 HOC/N0477F390 DCT MOROK/N0456F350 DCT PENDU DCT JAVVU DCT GIVRI/N0470F380 DCT TINIL
Aircraft A388/J-SADE2E3FGHIJ3J4J5M1RWXY/LB1D1

Departure

Time 2026-05-05 10:49
Airport Dubai International Airport (OMDB)

Arrival

Time N/A
Airport Charles de Gaulle International Airport (LFPG)
Time Latitude Longitude Altitude Speed Heading
2026-05-05 10:15 25.24284 55.37097 37 ft 0 kts 31°
2026-05-05 10:36 25.24277 55.37093 37 ft 4 kts 31°
2026-05-05 10:36 25.24254 55.37078 36 ft 2 kts 31°
2026-05-05 10:37 25.24236 55.37064 34 ft 4 kts 42°
2026-05-05 10:37 25.24222 55.37044 34 ft 4 kts 68°
2026-05-05 10:37 25.24219 55.37023 36 ft 4 kts 105°
2026-05-05 10:37 25.24229 55.37001 33 ft 4 kts 121°
2026-05-05 10:38 25.24243 55.36975 33 ft 4 kts 121°
2026-05-05 10:38 25.24252 55.36960 33 ft 1 kts 121°
2026-05-05 10:41 25.24251 55.36961 33 ft 1 kts 121°
2026-05-05 10:41 25.24241 55.36979 33 ft 5 kts 121°
2026-05-05 10:42 25.24170 55.37109 39 ft 16 kts 121°
2026-05-05 10:42 25.24109 55.37217 41 ft 18 kts 122°
2026-05-05 10:42 25.24044 55.37335 44 ft 17 kts 121°
2026-05-05 10:43 25.23987 55.37440 46 ft 14 kts 114°
2026-05-05 10:43 25.23978 55.37530 47 ft 11 kts 76°
2026-05-05 10:43 25.24018 55.37602 48 ft 11 kts 40°
2026-05-05 10:43 25.24086 55.37652 47 ft 12 kts 31°
2026-05-05 10:44 25.24135 55.37684 43 ft 13 kts 30°
2026-05-05 10:44 25.24207 55.37731 43 ft 10 kts 31°
2026-05-05 10:44 25.24258 55.37765 47 ft 7 kts 31°
2026-05-05 10:44 25.24303 55.37797 44 ft 8 kts 33°
2026-05-05 10:45 25.24341 55.37824 46 ft 0 kts 33°
2026-05-05 10:45 25.24345 55.37827 47 ft 3 kts 33°
2026-05-05 10:45 25.24376 55.37849 48 ft 7 kts 33°
2026-05-05 10:46 25.24429 55.37889 45 ft 11 kts 34°
2026-05-05 10:46 25.24499 55.37943 44 ft 13 kts 34°
2026-05-05 10:46 25.24576 55.38000 45 ft 14 kts 33°
2026-05-05 10:46 25.24634 55.38042 45 ft 8 kts 32°
2026-05-05 10:47 25.24683 55.38075 46 ft 9 kts 31°
2026-05-05 10:47 25.24736 55.38108 48 ft 7 kts 15°
2026-05-05 10:47 25.24770 55.38099 48 ft 5 kts 312°
2026-05-05 10:47 25.24817 55.38015 45 ft 37 kts 302°
2026-05-05 10:48 25.25084 55.37538 36 ft 106 kts 301°
2026-05-05 10:48 25.25559 55.36681 27 ft 151 kts 301°
2026-05-05 10:48 25.26150 55.35606 109 ft 170 kts 302°
2026-05-05 10:48 25.26770 55.34504 507 ft 170 kts 304°
2026-05-05 10:49 25.27418 55.33381 796 ft 178 kts 304°
2026-05-05 10:49 25.28086 55.32229 1150 ft 180 kts 304°
2026-05-05 10:49 25.28774 55.31014 1332 ft 192 kts 303°
2026-05-05 10:49 25.29422 55.29674 1484 ft 206 kts 286°
2026-05-05 10:50 25.29392 55.28074 1678 ft 215 kts 251°
2026-05-05 10:50 25.28663 55.26624 1853 ft 219 kts 236°
2026-05-05 10:50 25.27821 55.25148 1956 ft 238 kts 238°
2026-05-05 10:50 25.26990 55.23538 2379 ft 245 kts 241°
2026-05-05 10:51 25.26224 55.21814 2819 ft 254 kts 243°
2026-05-05 10:51 25.25480 55.20038 3406 ft 255 kts 244°
2026-05-05 10:51 25.24721 55.18277 4017 ft 255 kts 235°
2026-05-05 10:51 25.23473 55.16948 4697 ft 249 kts 205°
2026-05-05 10:52 25.21834 55.16469 5250 ft 249 kts 176°
2026-05-05 10:52 25.20121 55.16824 5644 ft 259 kts 161°
2026-05-05 10:52 25.18499 55.17762 6137 ft 262 kts 138°
2026-05-05 10:52 25.17377 55.19308 6692 ft 262 kts 118°
2026-05-05 10:53 25.16492 55.21122 7009 ft 277 kts 117°
2026-05-05 10:53 25.15584 55.23056 7353 ft 289 kts 116°
2026-05-05 10:53 25.14688 55.25036 7979 ft 289 kts 116°
2026-05-05 10:53 25.13775 55.26985 8610 ft 289 kts 117°
2026-05-05 10:54 25.12806 55.28964 9254 ft 291 kts 118°
2026-05-05 10:54 25.11835 55.30945 9785 ft 295 kts 118°
2026-05-05 10:54 25.10864 55.32949 10289 ft 299 kts 117°
2026-05-05 10:54 25.09956 55.35085 10491 ft 316 kts 114°
2026-05-05 10:55 25.09038 55.37355 10620 ft 333 kts 114°
2026-05-05 10:55 25.08067 55.39736 10783 ft 348 kts 114°
2026-05-05 10:55 25.07059 55.42187 11201 ft 353 kts 114°
2026-05-05 10:55 25.06092 55.44632 11680 ft 357 kts 113°
2026-05-05 10:56 25.05105 55.47225 12203 ft 361 kts 112°
2026-05-05 10:56 25.04116 55.49831 12711 ft 364 kts 112°
2026-05-05 10:56 25.03130 55.52414 13226 ft 368 kts 113°
2026-05-05 10:56 25.02116 55.55023 13706 ft 372 kts 115°
2026-05-05 10:57 25.00855 55.57518 14180 ft 374 kts 122°
2026-05-05 10:57 24.99497 55.59989 14637 ft 378 kts 121°
2026-05-05 10:57 24.98149 55.62479 15115 ft 381 kts 121°
2026-05-05 10:57 24.96791 55.64997 15606 ft 383 kts 121°
2026-05-05 10:58 24.95441 55.67500 16066 ft 386 kts 121°
2026-05-05 10:58 24.94051 55.70035 16548 ft 388 kts 124°
2026-05-05 10:58 24.93529 55.70865 16704 ft 389 kts 127°